Regional Weather Roundup
Issued by NWS Sioux Falls, SD

Home | Current Version | Previous Version | Text Only | Print | Product List | Glossary Off
Versions: 1 2 3 4 5 6 7 8 9 10 11 12 13 14 15 16 17 18 19 20 21 22 23 24 25 26 27 28 29 30 31 32 33 34 35 36 37 38 39 40 41 42 43 44 45 46 47 48 49 50

000
ASUS43 KFSD 050702
RWRFSD

WEATHER ROUNDUP FOR SE SOUTH DAKOTA/SW MINNESOTA/NW IOWA
NATIONAL WEATHER SERVICE SIOUX FALLS SD
200 AM CDT TUE MAY 05 2015

NOTE: "FAIR" INDICATES FEW OR NO CLOUDS BELOW 12,000 FEET WITH NO
SIGNIFICANT WEATHER AND OR OBSTRUCTIONS TO VISIBILITY.


SDZ038>040-050-052>070-050800-
SOUTHEAST SOUTH DAKOTA

CITY           SKY/WX    TMP DP  RH WIND       PRES   REMARKS
BROOKINGS      PTCLDY    52  28  40 E7        30.17F
CHAMBERLAIN    NOT AVBL
HURON          CLEAR     50  31  48 SE8       30.13S
MADISON        FAIR      45  27  49 E7        30.16S
MITCHELL       CLEAR     46  37  71 E7        30.12F
SIOUX FALLS    PTCLDY    47  31  53 NE6       30.14F
WINNER         FAIR      50  34  54 SE6       30.09F
YANKTON        CLEAR     52  43  71 N6        30.10F
$$

MNZ071-072-080-081-089-090-097-098-050800-
SOUTHWEST MINNESOTA

CITY           SKY/WX    TMP DP  RH WIND       PRES   REMARKS
FAIRMONT       CLOUDY    55  30  38 NE8       30.14F
JACKSON        CLOUDY    54  32  43 E9        30.15F
LUVERNE        PTCLDY    50  32  50 N3        30.14F
MARSHALL       PTCLDY    45  21  39 CALM      30.18S
MONTEVIDEO     CLEAR     46  30  53 SE3       30.20S
REDWOOD FALLS  MOCLDY    54  28  36 E9        30.18F
TRACY          MOCLDY    52  31  44 CALM      30.17F
WORTHINGTON    MOCLDY    48  28  46 NE6       30.15F
$$

IAZ001>003-012>014-020>022-031-032-NEZ013-014-SDZ071-050800-
NORTHWEST IOWA

CITY           SKY/WX    TMP DP  RH WIND       PRES   REMARKS
DENISON        RAIN      55  55 100 E12       30.07F
ESTHERVILLE    CLOUDY    51  35  54 NE9       30.14F
SIOUX CITY     CLOUDY    59  50  72 E7        30.10F
SPENCER        MOCLDY    53  40  61 NE9       30.13F
$$

ABBREVIATIONS USED IN REMARKS
   TC - TEMPERATURE IN CELSIUS
  WCI - WIND CHILL INDEX
   HX - HEAT INDEX
  VSB - VISIBILITY



USA.gov is the U.S. government's official web portal to all federal, state and local government web resources and services.